White Plains, CT

4:08 AM EST on December 11, 2019 (GMT -0500)
Westchester County

Weather History for KHPN - October, 2019

Change the Weather History Date:

Wednesday, October 23, 2019

  Actual Average Record
Temperature  
Mean Temperature 57 °F -  
Max Temperature 64 °F 57 °F 77 °F (1978)
Min Temperature 46 °F 41 °F 30 °F (1997)
Degree Days  
Heating Degree Days 8    
Growing Degree Days 7 (Base 50)    
Moisture  
Dew Point 43 °F    
Average Humidity 63    
Maximum Humidity 96    
Minimum Humidity 28    
Precipitation  
Precipitation 0.24 in - - ()
Sea Level Pressure  
Sea Level Pressure 29.92 in    
Wind  
Wind Speed 8 mph ()    
Max Wind Speed 16 mph    
Max Gust Speed 25 mph    
Visibility 9.3 miles    
Events Rain    
Averages and records for this station are not official NWS values.
T = Trace of Precipitation, MM = Missing Value Source: Averaged Metar Reports

Daily Weather History Graph

Daily Weather History Graph

Search for Another Location

Airport or City:

Astronomy

Oct. 23, 2019 Rise Set
Actual Time 7:15 AM EDT 6:02 PM EDT
Civil Twilight 6:46 AM EDT 6:30 PM EDT
Nautical Twilight 6:14 AM EDT 7:02 PM EDT
Astronomical Twilight 5:42 AM EDT 7:34 PM EDT
Moon 1:26 AM EDT (10/23) 3:54 PM EDT (10/23)
Length of Visible Light 11h 43m
Length of Day
10h 47m
Waning Crescent, 27% of the Moon is Illuminated
Oct 23
Waning Crescent
Oct 27
New
Nov 4
First Quarter
Nov 12
Full
Nov 19
Last Quarter

Hourly Weather History & Observations

Time (EDT) Temp. Dew Point Humidity Pressure Visibility Wind Dir Wind Speed Gust Speed Precip Events Conditions
12:56 AM 59.0 °F 57.9 °F 96% 29.77 in 2.0 mi East 5.8 mph - 0.09 in Rain Light Rain
1:56 AM 60.1 °F 59.0 °F 96% 29.76 in 2.0 mi Calm Calm - 0.12 in Rain Light Rain
2:56 AM 57.0 °F 55.9 °F 96% 29.76 in 10.0 mi NW 15.0 mph - 0.03 in   Mostly Cloudy
3:56 AM 57.0 °F 54.0 °F 89% 29.75 in 10.0 mi NNW 12.7 mph - N/A   Mostly Cloudy
4:56 AM 55.9 °F 53.1 °F 90% 29.77 in 10.0 mi NW 10.4 mph - N/A   Partly Cloudy
5:56 AM 55.9 °F 53.1 °F 90% 29.78 in 10.0 mi NW 12.7 mph - N/A   Clear
6:56 AM 55.0 °F 53.1 °F 93% 29.82 in 10.0 mi NW 13.8 mph - N/A   Clear
7:56 AM 55.0 °F 52.0 °F 89% 29.85 in 10.0 mi NW 11.5 mph - N/A   Partly Cloudy
8:56 AM 57.0 °F 51.1 °F 81% 29.88 in 10.0 mi NW 12.7 mph - N/A   Partly Cloudy
9:56 AM 59.0 °F 48.0 °F 67% 29.91 in 10.0 mi WNW 11.5 mph - N/A   Clear
10:56 AM 61.0 °F 43.0 °F 52% 29.91 in 10.0 mi WNW 11.5 mph - N/A   Partly Cloudy
11:56 AM 62.1 °F 42.1 °F 48% 29.93 in 10.0 mi WNW 16.1 mph - N/A   Scattered Clouds
12:56 PM 64.0 °F 39.9 °F 41% 29.93 in 10.0 mi WNW 11.5 mph - N/A   Scattered Clouds
1:56 PM 63.0 °F 35.1 °F 35% 29.93 in 10.0 mi WNW 13.8 mph 23.0 mph N/A   Scattered Clouds
2:56 PM 64.0 °F 33.1 °F 31% 29.93 in 10.0 mi West 15.0 mph 25.3 mph N/A   Clear
3:56 PM 64.0 °F 30.0 °F 28% 29.95 in 10.0 mi West 10.4 mph 19.6 mph N/A   Partly Cloudy
4:56 PM 63.0 °F 30.9 °F 30% 29.96 in 10.0 mi West 9.2 mph - N/A   Clear
5:56 PM 60.1 °F 32.0 °F 35% 30.00 in 10.0 mi West 11.5 mph - N/A   Clear
6:56 PM 57.0 °F 30.9 °F 37% 30.04 in 10.0 mi West 3.5 mph - N/A   Clear
7:56 PM 52.0 °F 36.0 °F 54% 30.08 in 10.0 mi Calm Calm - N/A   Clear
8:56 PM 50.0 °F 36.0 °F 59% 30.11 in 10.0 mi West 5.8 mph - N/A   Clear
9:56 PM 53.1 °F 34.0 °F 48% 30.13 in 10.0 mi West 6.9 mph - N/A   Clear
11:56 PM 46.0 °F 37.0 °F 71% 30.16 in 10.0 mi Calm Calm - N/A   Clear